TimeCDT,TemperatureF,Dew PointF,Humidity,Sea Level PressureIn,VisibilityMPH,Wind Direction,Wind SpeedMPH,Gust SpeedMPH,PrecipitationIn,Events,Conditions,WindDirDegrees,DateUTC
12:58 AM,75.9,72.3,89,30.27,10.0,Calm,Calm,-,N/A,,Clear,0,2013-07-17 05:58:00
1:58 AM,75.0,73.6,95,30.27,10.0,SSE,2.3,-,N/A,,Clear,150,2013-07-17 06:58:00
2:58 AM,74.1,74.1,100,30.27,10.0,South,4.6,-,N/A,,Clear,170,2013-07-17 07:58:00
3:58 AM,73.0,73.0,100,30.27,10.0,SSE,3.5,-,N/A,,Clear,160,2013-07-17 08:58:00
4:58 AM,72.9,72.9,100,30.27,10.0,South,3.5,-,N/A,,Clear,180,2013-07-17 09:58:00
5:58 AM,72.1,72.1,100,30.29,10.0,SSW,2.3,-,N/A,,Clear,200,2013-07-17 10:58:00
6:58 AM,72.9,72.9,100,30.30,10.0,SW,1.2,-,N/A,,Clear,220,2013-07-17 11:58:00
7:58 AM,79.0,75.6,89,30.31,10.0,WSW,6.9,-,N/A,,Scattered Clouds,240,2013-07-17 12:58:00
8:58 AM,81.0,74.1,80,30.32,10.0,SW,6.9,-,N/A,,Scattered Clouds,220,2013-07-17 13:58:00
9:58 AM,84.2,73.4,70,30.32,10.0,SW,4.6,-,N/A,,Partly Cloudy,230,2013-07-17 14:58:00
9:59 AM,84.2,73.4,70,30.33,10.0,SW,4.6,-,N/A,,Partly Cloudy,230,2013-07-17 14:59:00
10:58 AM,87.8,72.5,60,30.31,10.0,West,8.1,-,N/A,,Scattered Clouds,280,2013-07-17 15:58:00
11:58 AM,88.5,72.1,58,30.32,10.0,WSW,4.6,-,N/A,,Scattered Clouds,250,2013-07-17 16:58:00
12:58 PM,90.1,71.2,54,30.31,10.0,Variable,2.3,-,N/A,,Scattered Clouds,0,2013-07-17 17:58:00
1:58 PM,89.4,71.2,55,30.29,10.0,South,3.5,-,N/A,,Scattered Clouds,170,2013-07-17 18:58:00
2:58 PM,92.7,70.3,48,30.26,10.0,SSW,4.6,-,N/A,,Scattered Clouds,200,2013-07-17 19:58:00
3:58 PM,93.4,70.7,47,30.25,10.0,South,5.8,-,N/A,,Scattered Clouds,170,2013-07-17 20:58:00
4:58 PM,95.0,68.2,41,30.22,10.0,South,10.4,-,N/A,,Partly Cloudy,190,2013-07-17 21:58:00
5:58 PM,93.7,67.8,43,30.21,10.0,South,5.8,-,N/A,,Clear,170,2013-07-17 22:58:00
6:58 PM,93.7,67.5,42,30.19,10.0,SSW,4.6,-,N/A,,Clear,200,2013-07-17 23:58:00
7:58 PM,87.8,72.0,59,30.19,10.0,ENE,6.9,-,N/A,,Clear,60,2013-07-18 00:58:00
8:58 PM,82.4,70.9,68,30.19,10.0,ENE,4.6,-,N/A,,Clear,70,2013-07-18 01:58:00
9:58 PM,80.2,71.4,74,30.21,10.0,ESE,4.6,-,N/A,,Clear,110,2013-07-18 02:58:00
10:58 PM,78.8,73.2,83,30.20,10.0,ESE,3.5,-,N/A,,Clear,120,2013-07-18 03:58:00
11:58 PM,77.7,74.3,89,30.22,10.0,ESE,4.6,-,N/A,,Clear,110,2013-07-18 04:58:00